Overview Statistics Trail Chart Weather Telemetry Raw packets
 

This is the latest recevied weather packets stored in our database for station/object WS4FSC-7. If no packets are shown the sender has not sent any weather packets the latest 10 day(s).

<< 6 7 8 9 10 11 12 >>
Time Temp. Humidity Pressure Rain* Wind** Luminosity Snow
1788536150 28.89° C 81% 1016 hPa - - 223 W/m² -
1788535972 28.89° C 81% 1016 hPa - - 250 W/m² -
1788535791 29.44° C 80% 1016 hPa - - 277 W/m² -
1788535611 29.44° C 80% 1016 hPa - - 251 W/m² -
1788535430 30° C 80% 1016 hPa - - 153 W/m² -
1788535250 30° C 81% 1016 hPa - - 166 W/m² -
1788534711 30° C 81% 1016 hPa - - 177 W/m² -
1788534532 30° C 82% 1016 hPa - - 174 W/m² -
1788534352 30° C 80% 1016 hPa - - 209 W/m² -
1788533811 30.56° C 77% 1016 hPa - - 480 W/m² -
1788533091 30.56° C 75% 1015 hPa - - 152 W/m² -
1788532911 30° C 77% 1015 hPa - - 121 W/m² -
1788532190 29.44° C 76% 1015 hPa - - 701 W/m² -
1788532010 29.44° C 77% 1015 hPa - - 694 W/m² -
1788531831 28.89° C 78% 1015 hPa - - 705 W/m² -
1788531650 28.89° C 78% 1015 hPa - - 246 W/m² -
1788531291 28.33° C 78% 1015 hPa - - 302 W/m² -
1788529851 31.67° C 75% 1015 hPa - - 672 W/m² -
1788529671 31.67° C 76% 1015 hPa - - 620 W/m² -
1788529490 31.67° C 75% 1015 hPa - - 563 W/m² -
1788529310 31.67° C 77% 1015 hPa - - 551 W/m² -
1788528950 31.67° C 76% 1015 hPa - - 531 W/m² -
1788528590 31.67° C 76% 1015 hPa - - 525 W/m² -
1788528411 31.67° C 77% 1014 hPa - - 527 W/m² -
1788528050 31.67° C 78% 1015 hPa - - 478 W/m² -

* Rain since midnight (hover to see other rain measurements)
** Current wind speed in m/s (hover to see current wind gust speed)